[[{"header":{"parameterUnit":"m.s-1","parameterCategory":1,"la1":30.2991,"la2":30.254,"lo1":-89.0895,"lo2":-89.0444,"dy":0.0017,"dx":0.0017,"nx":28,"ny":28,"refTime":"2025-11-10T09:00:00:Z","depth":0,"parameterNumber":2,"parameterNumberName":"U-component_of_WINDS"},"data":[0,0,0,0,0,0,0,0,0,0,0,0,0,0,0,0,0,0,0,0,0,0,0,0,0,0,0,0,0,0,0,0,0,0,0,0,0,0,0,0,0,0,0,0,0,0,0,0,0,0,0,0,0,0,0,0,0,0,0.7103,0.7103,0,0.7121,0.7121,0.7121,0.7119,0.7119,0.7119,0.7119,0.7135,0.7135,0.7136,0,0,0,0,0,0,0,0,0,0,0,0,0,0.7063,0.7064,0.7103,0.7103,0.7103,0.7121,0.7121,0.7121,0.7119,0.7119,0.7119,0.7118,0.7135,0.7135,0.7136,0,0,0,0,0,0,0,0,0,0,0,0,0,0.7081,0.7064,0.7103,0.7104,0.7105,0.7121,0.7121,0.7121,0.7119,0.7119,0.7119,0.7118,0.7134,0.7135,0.7136,0.7151,0,0,0.714,0.714,0,0,0,0,0,0,0,0,0.708,0.7082,0.7104,0.7104,0.7105,0.7117,0.7113,0.7131,0.712,0.7114,0.7119,0.7118,0.7129,0.7131,0.7135,0.7152,0.7152,0.714,0.714,0.7141,0.7141,0,0,0,0,0,0,0,0.7079,0.7081,0.711,0.7104,0.7105,0.7103,0.7105,0.7116,0.7123,0.7114,0.7114,0.7116,0.7129,0.7134,0.7135,0.7153,0.714,0.714,0.7141,0.7142,0.7181,0.7181,0,0,0,0,0,0,0.7077,0.708,0.7109,0.711,0.7091,0.7104,0.7107,0.7114,0.7123,0.7125,0.7117,0.7116,0.7132,0.7134,0.7136,0.7152,0.7141,0.7142,0.7142,0.718,0.7181,0.7181,0,0,0,0,0,0,0.7077,0.708,0.7108,0.7095,0.7099,0.7105,0.7113,0.7114,0.7119,0.7125,0.7126,0.712,0.7132,0.7134,0.7147,0.7153,0.7142,0.7143,0.718,0.718,0.7181,0.7186,0,0,0,0,0,0,0.7075,0.708,0.7086,0.7096,0.71,0.712,0.7114,0.7115,0.7121,0.712,0.7129,0.713,0.7132,0.7145,0.7148,0.7154,0.7144,0.7179,0.718,0.7181,0.7186,0.7187,0.7188,0,0,0,0,0,0.7074,0.7087,0.7086,0.709,0.7108,0.7121,0.7123,0.7125,0.7121,0.7127,0.7131,0.713,0.7152,0.7147,0.715,0.7156,0.7179,0.718,0.7181,0.7185,0.7187,0.7188,0,0,0,0,0,0,0.7077,0.7088,0.7088,0.7104,0.7112,0.712,0.7128,0.7127,0.7136,0.7135,0.7137,0.7139,0.7151,0.7155,0.7149,0.717,0.7165,0.7166,0.7167,0.7169,0.717,0.7168,0.7145,0,0,0,0,0,0.708,0.709,0.7099,0.7112,0.7116,0.7121,0.7127,0.7128,0.7136,0.7139,0.7144,0.715,0.7158,0.7164,0.7172,0.7186,0.7187,0.7192,0.7193,0.7195,0.7196,0.7202,0.7204,0.7184,0.7184,0.7184,0,0,0.7086,0.7093,0.7099,0.7113,0.7119,0.7129,0.7124,0.7135,0.7141,0.714,0.7152,0.7156,0.7163,0.7176,0.7182,0.718,0.7201,0.7196,0.7197,0.7197,0.7203,0.7205,0.7206,0.7185,0.7185,0.7185,0,0,0.71,0.7108,0.7119,0.7125,0.7134,0.7137,0.714,0.7148,0.7151,0.7163,0.7162,0.717,0.7185,0.7189,0.7194,0.7209,0.7207,0.7212,0.7218,0.7224,0.7226,0.7227,0.7232,0.7233,0.7213,0.7213,0.7213,0,0.7106,0.7121,0.7125,0.7135,0.7141,0.7141,0.7151,0.7156,0.7167,0.7171,0.7168,0.7186,0.7191,0.7204,0.7208,0.7212,0.7214,0.721,0.7226,0.7227,0.7228,0.7232,0.7234,0.7213,0.7213,0.7213,0.7213,0,0.7127,0.7137,0.7145,0.7156,0.7162,0.7173,0.7177,0.7183,0.7183,0.7187,0.7198,0.7204,0.7213,0.7216,0.7217,0.723,0.7228,0.7225,0.722,0.723,0.7234,0.7236,0.7214,0.7214,0.7214,0.7213,0,0,0.7144,0.7156,0.7159,0.7163,0.7173,0.718,0.719,0.7199,0.7204,0.7211,0.7219,0.7231,0.7228,0.7233,0.7234,0.724,0.725,0.7237,0.7237,0.7238,0.7263,0.7264,0.7266,0.7249,0.725,0.725,0.7262,0,0.7159,0.7177,0.718,0.7196,0.7204,0.7204,0.7212,0.7218,0.7221,0.7228,0.7231,0.7239,0.7236,0.7239,0.7245,0.7248,0.7255,0.7247,0.7255,0.7255,0.7252,0.7268,0.7269,0.728,0.7263,0.7264,0.7264,0,0.7179,0.7187,0.7203,0.721,0.7214,0.7222,0.7229,0.7237,0.7243,0.7245,0.725,0.725,0.7259,0.7254,0.7265,0.726,0.7263,0.7265,0.7265,0.7266,0.726,0.7267,0.7284,0.7285,0.7266,0.7266,0.7266,0,0.7188,0.7203,0.7214,0.7218,0.7227,0.7232,0.7236,0.7242,0.7247,0.7254,0.7257,0.7264,0.7268,0.7273,0.7275,0.7271,0.7286,0.7281,0.7286,0.7286,0.7289,0.7289,0.7305,0.7293,0.7293,0.7293,0.7293,0,0.7204,0.7213,0.7219,0.7226,0.7236,0.7239,0.7249,0.7252,0.7257,0.7264,0.7264,0.727,0.7273,0.7279,0.728,0.7289,0.7291,0.7292,0.7292,0.7291,0.7291,0.7293,0.7292,0.7293,0.7293,0.7293,0.7293,0,0.7216,0.722,0.7232,0.7239,0.7241,0.7249,0.7255,0.7261,0.7263,0.7272,0.7274,0.7278,0.7285,0.7288,0.7297,0.7297,0.7307,0.7307,0.7305,0.7305,0.731,0.7309,0.7328,0.733,0.7317,0.7317,0.7317,0,0.7225,0.7232,0.724,0.7245,0.7249,0.7257,0.7262,0.7265,0.727,0.7277,0.7282,0.7289,0.7295,0.7306,0.731,0.7316,0.7315,0.7322,0.7316,0.7315,0.7314,0.7313,0.7314,0.7322,0.7322,0.7322,0.7323,0,0.724,0.7242,0.7249,0.7257,0.7263,0.7269,0.7275,0.7279,0.7282,0.7287,0.7295,0.73,0.7309,0.7315,0.7322,0.7325,0.7324,0.7324,0.7326,0.7325,0.7323,0.7323,0.7307,0.7324,0.7323,0.7323,0.7323,0.7323,0.725,0.7256,0.7263,0.7271,0.7276,0.7281,0.7287,0.729,0.7297,0.7305,0.7306,0.7313,0.7319,0.7327,0.733,0.7336,0.7334,0.7336,0.7337,0.7337,0.7337,0.7323,0.7337,0.7337,0.7337,0.7337,0.7337,0,0.7265,0.7269,0.7276,0.7284,0.729,0.729,0.7296,0.7301,0.7308,0.7313,0.7319,0.7327,0.7333,0.7337,0.7343,0.7347,0.7346,0.7348,0.7348,0.7348,0.7339,0.7336,0.7348,0.7348,0.7348,0.7348,0.7348,0.7348,0.7273,0.7283,0.7285,0.7297,0.73,0.7308,0.7312,0.7316,0.7321,0.733,0.7335,0.7338,0.7342,0.7349,0.7354,0.7355,0.7357,0.7359,0.7359,0.735,0.7349,0.7348,0.7346,0.7359,0.7359,0.7368,0.7368,0.7368]},{"header":{"parameterUnit":"m.s-1","parameterCategory":1,"la1":30.2991,"la2":30.254,"lo1":-89.0895,"lo2":-89.0444,"dy":0.0017,"dx":0.0017,"nx":28,"ny":28,"refTime":"2025-11-10T09:00:00:Z","depth":0,"parameterNumber":3,"parameterNumberName":"V-component_of_WINDS"},"data":[0,0,0,0,0,0,0,0,0,0,0,0,0,0,0,0,0,0,0,0,0,0,0,0,0,0,0,0,0,0,0,0,0,0,0,0,0,0,0,0,0,0,0,0,0,0,0,0,0,0,0,0,0,0,0,0,0,0,3.6533,3.6533,0,3.6504,3.6504,3.6504,3.6429,3.6427,3.6426,3.6424,3.6394,3.6395,3.6396,0,0,0,0,0,0,0,0,0,0,0,0,0,3.6523,3.6524,3.6533,3.6533,3.6533,3.6504,3.6504,3.6503,3.6429,3.6427,3.6425,3.6423,3.6394,3.6395,3.6396,0,0,0,0,0,0,0,0,0,0,0,0,0,3.6514,3.6524,3.6533,3.6492,3.6488,3.6504,3.6504,3.6503,3.6429,3.6427,3.6425,3.6422,3.6394,3.6395,3.6396,3.645,0,0,3.6399,3.64,0,0,0,0,0,0,0,0,3.6515,3.6515,3.6498,3.6495,3.649,3.6468,3.6489,3.6486,3.643,3.6452,3.6424,3.6421,3.6421,3.6419,3.6419,3.6449,3.6448,3.6399,3.64,3.64,3.6401,0,0,0,0,0,0,0,3.6516,3.6516,3.6522,3.6498,3.6493,3.6475,3.6471,3.6488,3.645,3.645,3.6444,3.6442,3.6418,3.6418,3.6418,3.6447,3.6399,3.64,3.6401,3.6401,3.6517,3.6519,0,0,0,0,0,0,3.6522,3.6517,3.6523,3.6521,3.6497,3.6477,3.6472,3.6477,3.645,3.6443,3.6444,3.6438,3.6418,3.6417,3.6417,3.6476,3.64,3.6401,3.6402,3.6515,3.6518,3.652,0,0,0,0,0,0,3.6522,3.6524,3.6524,3.6517,3.6516,3.6479,3.6486,3.6478,3.6478,3.6445,3.6438,3.6451,3.6416,3.6415,3.6442,3.6474,3.6402,3.6403,3.6512,3.6516,3.6519,3.6597,0,0,0,0,0,0,3.6522,3.6524,3.6545,3.6518,3.6516,3.655,3.6488,3.6479,3.648,3.6473,3.645,3.6444,3.6414,3.6441,3.6443,3.6474,3.6404,3.6509,3.6514,3.6518,3.6591,3.6603,3.6613,0,0,0,0,0,3.6522,3.6568,3.6546,3.6547,3.6541,3.6552,3.6551,3.6515,3.6483,3.6503,3.6482,3.6445,3.6471,3.6444,3.6446,3.6478,3.6506,3.6512,3.6517,3.6587,3.6601,3.6613,0,0,0,0,0,0,3.66,3.6564,3.6539,3.6578,3.6569,3.6539,3.6563,3.6532,3.6531,3.6525,3.648,3.6476,3.6508,3.6496,3.6467,3.6528,3.6482,3.6489,3.6534,3.6547,3.6558,3.6559,3.6404,0,0,0,0,0,3.6621,3.6633,3.6601,3.6639,3.6635,3.6601,3.6604,3.6577,3.6566,3.6561,3.6542,3.6532,3.6537,3.6542,3.6546,3.659,3.6583,3.6613,3.6624,3.6633,3.6638,3.6658,3.667,3.6538,3.6538,3.6538,0,0,3.6666,3.6648,3.6658,3.6654,3.6643,3.6656,3.6598,3.6614,3.6622,3.6564,3.6587,3.6573,3.6558,3.6594,3.6608,3.6584,3.6673,3.664,3.6647,3.6647,3.6665,3.6677,3.6688,3.6542,3.6542,3.6541,0,0,3.6753,3.6742,3.677,3.6761,3.6745,3.6722,3.6729,3.6704,3.6692,3.6715,3.6671,3.668,3.6692,3.6683,3.668,3.6763,3.6728,3.6765,3.682,3.6841,3.6851,3.686,3.6887,3.6898,3.6771,3.6771,3.6771,0,3.681,3.6827,3.6789,3.6807,3.6806,3.6753,3.6781,3.6774,3.6761,3.6761,3.6735,3.6747,3.6734,3.6765,3.6785,3.6785,3.679,3.6767,3.6853,3.6861,3.6869,3.6894,3.6905,3.6775,3.6775,3.6775,3.6774,0,3.6897,3.691,3.6935,3.6923,3.6924,3.6948,3.6912,3.6918,3.6892,3.6871,3.6894,3.6876,3.6874,3.688,3.6855,3.6907,3.6893,3.6861,3.6813,3.6886,3.691,3.6919,3.6782,3.678,3.6779,3.6778,0,0,3.7032,3.6997,3.7007,3.7,3.6979,3.6988,3.7008,3.7006,3.7011,3.7004,3.7019,3.7029,3.6999,3.6995,3.6968,3.6987,3.705,3.6951,3.695,3.6968,3.7105,3.7127,3.714,3.7028,3.703,3.7031,3.7105,0,3.7112,3.7144,3.711,3.7149,3.7159,3.7109,3.7127,3.7116,3.7097,3.7102,3.7081,3.7088,3.7048,3.7046,3.7061,3.7039,3.7077,3.7034,3.704,3.7041,3.7043,3.7152,3.7176,3.7247,3.7114,3.7116,3.7117,0,3.7209,3.7206,3.7246,3.7221,3.7224,3.724,3.7234,3.7241,3.7227,3.7211,3.7207,3.7174,3.7192,3.7147,3.717,3.7141,3.7142,3.7131,3.7133,3.7131,3.7082,3.715,3.7269,3.7279,3.7131,3.713,3.7129,0,3.73,3.7306,3.733,3.7326,3.7298,3.731,3.7299,3.7282,3.7283,3.7278,3.7277,3.7275,3.7273,3.7272,3.7239,3.721,3.7265,3.7218,3.7251,3.7252,3.7263,3.7262,3.7381,3.7268,3.7267,3.7267,3.7267,0,3.7392,3.7418,3.737,3.7385,3.7412,3.7372,3.74,3.7384,3.737,3.7379,3.7337,3.7347,3.7304,3.7309,3.7284,3.7305,3.7305,3.7292,3.7285,3.7295,3.7296,3.7293,3.7287,3.727,3.7269,3.7269,3.7268,0,3.7498,3.7467,3.7489,3.7461,3.7454,3.7475,3.745,3.7462,3.744,3.7453,3.7454,3.742,3.7424,3.7391,3.7389,3.7372,3.7404,3.7389,3.7409,3.7403,3.7437,3.7433,3.7556,3.7569,3.745,3.7451,3.7452,0,3.7557,3.7576,3.7549,3.7552,3.7543,3.755,3.7549,3.7511,3.7512,3.7497,3.751,3.7511,3.7509,3.7518,3.7492,3.749,3.7473,3.7516,3.7473,3.7482,3.7471,3.747,3.747,3.7525,3.7527,3.7528,3.7529,0,3.7665,3.7649,3.765,3.7646,3.7647,3.7642,3.7634,3.7639,3.7597,3.7601,3.7604,3.7603,3.76,3.76,3.7593,3.7581,3.7548,3.7543,3.755,3.7559,3.7569,3.7562,3.7431,3.754,3.7539,3.7538,3.7537,3.7537,3.7748,3.7761,3.7744,3.7746,3.7736,3.7729,3.7739,3.7718,3.772,3.7714,3.7692,3.7699,3.7682,3.7669,3.766,3.7664,3.7643,3.7654,3.7657,3.7659,3.7664,3.757,3.7663,3.7663,3.7663,3.7662,3.7662,0,3.7852,3.7838,3.7841,3.783,3.7832,3.7801,3.779,3.7793,3.78,3.7788,3.7787,3.779,3.7789,3.7764,3.776,3.7769,3.7753,3.7769,3.7767,3.7764,3.7685,3.7678,3.7781,3.7781,3.7781,3.7781,3.7781,3.7781,3.7906,3.7926,3.7907,3.7922,3.7908,3.7914,3.791,3.7903,3.7893,3.7898,3.7898,3.7881,3.7863,3.7858,3.7856,3.7848,3.7848,3.7869,3.7856,3.7781,3.777,3.7759,3.7752,3.7869,3.7869,3.7934,3.7935,3.7935]}]]